Theta_e
301 300 300 300 299 298 298 299 299 300 301 299 300 299 299 300 305 305 309 309 309 316 315 303 305 307 309 311 309 303 305 304 307 318 325 325 322 313 315 310 306 307 311 310 314 319 314 301 298 305 309 302 300 299
301 300 299 299 299 299 298 298 298 299 300 299 299 298 300 299 299 304 307 308 305 305 306 300 300 301 301 300 306 303 311 306 309 314 320 322 316 311 316 315 310 312 317 315 314 314 307 300 305 302 302 300 299 297
301 300 299 300 299 299 298 297 297 298 299 299 299 299 299 299 298 302 304 306 304 305 307 300 301 299 299 300 299 307 306 308 310 310 321 323 325 315 315 316 310 309 307 309 309 310 305 301 301 300 301 300 298 297
300 299 299 299 299 299 298 297 297 297 297 298 299 299 300 299 297 298 302 303 303 303 311 307 297 298 298 298 298 300 302 304 307 313 309 316 320 311 317 313 312 306 305 308 308 309 306 304 301 299 299 299 298 296
300 299 299 299 299 299 298 297 297 296 296 297 297 299 299 299 298 297 299 302 303 305 307 306 297 297 297 298 297 299 301 305 309 311 314 314 310 308 305 305 308 303 306 307 309 309 308 309 303 300 298 298 296 295
300 299 299 299 298 298 298 297 297 296 296 296 296 299 299 298 297 297 302 302 303 301 303 308 298 298 298 298 299 300 302 304 308 313 315 307 301 306 309 309 311 304 305 307 311 306 302 304 302 299 298 297 296 295
300 299 299 298 298 298 298 297 296 295 295 295 296 296 297 298 298 299 303 300 301 301 301 303 303 297 299 300 300 300 300 303 306 309 306 308 302 304 311 316 313 306 305 306 301 300 301 302 300 298 297 297 297 295
300 299 298 298 298 298 297 296 295 295 295 295 296 296 296 297 298 298 299 300 301 300 302 304 306 298 297 301 301 301 304 304 305 308 301 303 299 302 306 309 309 310 307 304 299 300 302 300 298 297 297 296 295 294
300 299 298 298 298 298 297 296 294 294 294 295 295 294 296 298 298 300 301 303 302 300 302 301 307 308 296 301 299 299 304 307 301 305 305 303 305 305 306 306 307 307 307 306 300 298 299 299 298 297 296 295 294 293
299 298 298 298 298 297 296 295 294 294 294 293 296 298 298 299 299 300 299 301 299 297 297 302 304 302 299 301 304 304 303 310 306 304 300 303 308 308 308 307 306 307 306 302 298 298 298 298 297 296 295 295 294 293
298 297 297 298 298 297 295 294 293 292 291 297 297 298 297 298 299 300 301 300 299 300 298 301 305 299 297 304 306 303 304 305 308 309 306 308 305 306 308 308 308 307 307 304 304 302 300 299 298 297 296 295 294 293
298 297 298 298 296 296 295 294 293 292 295 295 295 295 295 296 297 300 302 301 301 306 303 306 303 302 297 298 304 300 307 305 308 301 305 308 310 310 307 308 308 308 307 306 303 302 300 299 299 297 296 295 294 293
297 297 298 297 296 295 294 293 293 293 292 295 294 294 296 296 300 302 306 306 305 306 302 299 300 297 295 299 303 304 307 305 302 304 306 307 311 310 307 307 306 305 305 305 303 303 300 300 299 297 296 295 294 293
297 297 297 296 295 294 293 293 292 290 294 294 293 293 298 299 299 304 306 304 304 303 302 302 299 302 300 303 301 308 306 301 304 308 310 310 309 309 308 305 305 305 304 305 303 301 299 299 298 298 297 295 294 292
297 297 296 295 294 293 292 293 291 291 294 293 293 294 297 299 300 300 301 303 302 301 303 302 302 303 303 303 302 302 302 308 307 310 310 311 309 309 307 304 304 304 304 302 301 301 299 299 298 297 296 295 293 291
297 296 295 294 293 292 293 293 292 293 293 291 291 293 294 296 298 300 302 301 298 299 301 303 303 306 306 305 303 308 311 311 312 309 310 306 304 303 301 301 302 303 302 301 300 300 299 298 297 296 295 294 292 291
296 295 295 293 292 292 293 292 292 290 291 291 291 291 293 294 296 298 298 299 298 299 302 301 306 308 303 308 309 308 309 315 313 309 304 301 300 298 297 297 299 301 300 299 299 299 299 298 297 295 293 293 291 290
295 294 294 293 292 292 292 291 290 290 290 291 291 292 293 294 295 295 295 297 299 299 299 302 298 303 308 311 310 308 307 306 306 304 299 296 295 295 295 295 297 299 299 299 299 298 297 296 295 294 294 292 290 289
294 294 293 292 292 291 291 289 289 289 290 291 292 292 293 293 293 293 293 294 298 297 297 298 301 304 307 305 306 304 304 304 304 304 298 295 294 293 294 295 296 297 298 298 297 297 297 296 295 294 293 291 290 289
294 293 292 292 290 289 289 290 288 290 291 293 294 293 294 295 295 296 296 296 296 296 295 295 297 303 304 302 301 301 302 302 303 303 302 300 295 294 294 294 295 296 297 298 297 297 295 295 295 294 292 291 290 289
292 292 291 291 290 289 290 290 290 291 292 294 294 295 295 295 295 296 297 297 297 299 297 297 297 299 299 301 301 301 301 301 301 302 301 301 297 294 294 294 294 295 295 295 294 294 295 294 294 293 292 291 290 290
292 292 290 290 289 288 289 289 290 292 291 293 292 293 295 296 296 297 296 298 298 297 296 297 297 297 297 297 300 301 301 301 300 300 301 299 296 296 294 294 293 294 294 294 294 293 294 294 294 293 292 291 290 289
291 290 289 289 289 288 287 289 288 290 289 289 293 293 293 295 296 298 299 298 297 297 297 297 297 298 298 299 298 300 302 301 300 299 300 300 300 299 295 295 294 293 293 294 295 295 294 294 294 292 291 291 289 289
290 290 290 289 287 287 288 289 288 289 289 289 289 288 290 293 295 296 297 296 297 298 298 297 297 298 298 298 299 300 301 301 301 301 301 300 298 297 297 295 294 294 294 294 294 294 294 294 293 292 291 290 289 289
289 289 288 287 288 287 287 287 289 290 287 289 289 289 291 294 293 293 294 294 295 296 298 298 299 300 300 300 299 299 301 301 300 300 300 301 300 298 296 295 294 294 294 294 293 293 293 293 292 292 291 290 289 289
289 287 288 286 287 286 287 286 287 288 290 288 289 291 293 293 291 291 294 293 295 295 293 293 293 297 299 299 299 299 301 301 301 299 301 302 301 298 296 294 292 293 293 293 293 293 293 292 292 291 291 290 289 289
287 288 289 288 287 288 289 289 289 289 288 287 289 290 291 288 290 293 293 295 294 293 292 292 292 291 292 295 300 300 300 300 300 299 299 298 300 301 301 298 295 297 298 294 293 293 293 292 292 291 291 290 290 289
287 286 286 286 288 288 287 288 287 287 289 290 290 288 287 290 291 292 293 293 292 292 292 291 291 290 290 290 291 291 293 297 298 299 299 297 297 297 298 298 298 297 297 297 295 293 293 292 292 291 291 289 289 289
287 287 287 286 287 287 287 288 288 289 289 289 289 289 289 289 289 289 290 291 291 291 290 289 289 289 289 290 291 291 292 293 296 296 295 295 295 297 298 298 296 296 295 295 295 294 293 292 292 291 291 290 289 289
287 288 289 286 283 286 288 288 288 287 287 288 288 288 288 287 290 290 289 289 289 288 289 289 289 289 289 290 290 290 290 291 292 294 296 296 296 297 298 298 298 296 294 294 294 294 293 292 292 292 291 290 289 289
288 288 287 287 285 287 287 287 287 287 287 288 288 288 288 288 288 289 289 289 289 289 289 289 289 289 289 289 289 289 289 290 290 291 292 294 296 297 298 298 298 296 294 293 293 293 292 292 291 292 291 290 289 289
289 288 288 285 286 287 288 287 287 287 287 288 288 288 288 288 288 288 288 288 288 288 289 289 288 289 289 289 290 289 289 290 290 291 292 293 296 297 297 297 298 297 295 293 292 292 292 292 291 291 291 290 290 289
289 288 288 288 287 287 288 287 287 286 288 288 288 288 288 288 288 288 289 289 289 289 289 289 289 289 289 289 289 289 289 289 290 290 291 292 292 293 296 297 298 296 295 294 292 292 292 291 291 291 291 291 290 289
Wind_Speed
23 20 18 16 15 14 12 10 7 7 8 7 7 10 12 12 9 9 5 7 2 3 3 1 1 3 2 3 5 6 4 2 1 2 3 4 4 6 5 6 8 8 8 4 3 2 8 9 5 7 4 3 7 7
24 21 19 18 17 16 14 11 9 6 6 7 8 10 10 13 7 7 4 4 5 2 3 5 8 9 4 2 3 10 1 5 5 3 3 1 2 2 4 4 2 3 7 6 9 6 1 14 1 5 5 6 7 8
26 23 21 19 18 18 15 12 9 5 5 6 9 8 10 11 13 6 7 5 4 1 4 1 5 10 13 10 6 4 3 2 4 2 1 1 3 4 4 5 4 3 3 3 2 4 7 12 4 5 5 6 7 7
29 25 22 21 20 20 16 13 10 7 6 7 8 10 10 11 13 12 8 5 4 2 3 2 1 3 7 11 10 3 3 2 4 2 2 2 2 1 3 2 3 3 7 7 5 3 3 7 14 9 7 8 8 10
33 27 25 23 21 20 18 14 11 9 7 7 10 11 9 11 13 16 16 13 12 6 1 3 6 5 4 8 8 6 5 2 2 1 1 3 1 1 1 2 3 5 7 6 6 9 6 4 16 15 12 11 11 13
35 32 28 24 21 20 19 15 13 10 8 9 10 9 9 12 12 8 2 9 17 13 3 3 3 2 5 9 9 8 7 2 1 3 3 1 1 2 3 4 5 12 7 7 3 7 3 2 10 15 13 14 13 13
37 35 30 24 23 21 20 16 13 10 9 9 10 10 11 12 11 6 4 4 5 12 3 2 3 1 5 7 2 2 1 1 2 2 2 3 2 3 1 4 5 10 7 6 6 8 3 5 7 13 12 17 22 19
39 36 30 25 23 22 19 17 13 10 9 9 10 12 13 13 10 9 14 15 10 5 1 3 2 2 6 3 3 3 2 1 2 2 1 2 1 1 4 9 8 5 8 8 10 4 1 7 11 12 17 19 14 14
40 37 30 27 25 24 20 17 13 9 9 11 12 14 9 4 4 4 7 7 13 3 4 3 4 4 4 1 3 1 3 2 0 2 3 5 3 5 9 11 9 13 10 9 9 8 7 10 14 15 15 16 15 15
42 36 31 28 27 24 21 17 12 8 8 9 6 4 2 2 5 3 2 2 1 1 2 4 2 3 3 3 2 3 1 3 3 5 3 3 4 8 7 11 9 8 12 13 8 7 8 9 16 19 22 18 16 15
43 37 34 31 30 26 22 17 11 6 2 3 2 2 5 4 3 2 3 4 3 4 5 4 7 5 4 4 3 2 3 2 3 4 6 4 4 7 15 19 18 16 14 19 19 15 15 14 19 18 18 19 22 24
41 37 35 35 31 28 23 17 12 5 3 2 2 4 4 2 1 3 4 3 5 5 6 5 4 3 3 2 2 2 4 2 6 4 2 4 5 10 11 18 23 21 12 12 15 11 14 12 22 19 19 22 25 27
42 40 39 35 32 27 22 17 13 8 4 3 1 2 2 3 5 5 5 3 3 3 3 4 5 4 2 2 2 1 5 5 4 2 4 5 5 5 10 11 6 7 10 11 14 16 19 18 26 27 23 29 30 29
43 42 37 37 32 27 23 19 15 10 4 3 4 4 5 5 5 3 3 2 4 7 3 5 3 2 2 3 3 4 3 2 3 4 6 4 7 10 11 8 7 8 9 10 13 14 15 15 21 28 30 33 32 29
45 41 39 36 32 28 23 19 13 9 4 2 3 5 5 4 3 5 3 1 2 4 4 2 2 2 2 3 3 3 2 6 7 5 4 4 4 4 4 4 7 7 7 8 9 13 13 19 20 22 28 32 32 31
43 38 37 38 34 28 24 18 10 5 2 3 5 3 5 4 4 2 2 3 4 2 3 2 2 3 5 3 4 8 5 7 4 4 1 3 4 5 5 4 5 7 9 9 9 13 18 20 21 24 29 31 32 34
44 12 42 40 35 30 25 10 5 3 3 4 4 5 7 6 5 3 2 1 1 1 1 2 3 4 3 3 4 4 4 2 3 3 4 5 6 6 6 4 4 3 5 6 10 13 16 21 25 25 17 28 31 31
22 35 46 42 37 29 13 3 3 3 6 4 3 5 6 5 6 4 3 2 2 1 2 2 3 3 3 4 2 4 4 5 7 5 4 4 6 6 4 5 3 2 4 8 12 16 20 22 18 16 28 30 29 28
37 48 48 43 32 10 3 3 3 3 6 3 6 7 5 5 7 7 5 5 3 3 2 1 5 4 2 2 5 5 6 6 6 6 1 2 5 7 6 7 6 1 4 7 12 12 16 22 21 23 25 30 25 28
46 48 45 39 27 5 3 3 5 3 3 3 3 5 6 6 5 6 6 3 4 3 4 5 4 3 1 3 2 5 6 6 6 6 6 4 1 1 0 4 5 6 2 8 13 17 15 15 20 24 27 29 28 29
44 40 40 31 6 5 2 4 4 3 3 3 2 3 3 2 3 5 7 5 6 4 3 4 3 6 5 3 6 3 7 7 6 5 5 8 4 6 6 6 4 2 0 2 3 7 14 13 17 23 27 27 26 27
26 39 11 13 3 1 0 4 1 1 2 2 2 3 3 2 3 4 3 5 3 6 5 6 6 8 10 11 8 12 12 17 13 12 12 8 4 3 3 3 2 2 4 5 8 7 12 18 21 23 26 25 27 27
31 22 7 4 3 5 3 6 3 3 2 3 1 2 3 3 3 0 3 4 4 5 8 9 14 20 11 15 10 13 18 17 7 5 8 8 12 14 10 7 8 6 4 9 13 14 16 20 23 24 26 26 27 27
25 4 4 5 4 4 4 4 2 2 3 2 2 3 3 3 1 2 4 3 4 3 5 10 7 6 7 7 7 8 13 13 13 15 15 10 4 6 16 11 10 15 15 13 15 16 18 18 23 25 27 27 29 30
6 4 5 4 3 5 5 4 5 4 4 5 4 3 2 2 2 3 4 4 5 7 5 3 4 5 6 6 5 6 12 15 7 7 12 16 15 9 8 12 10 13 14 15 14 17 19 18 22 25 26 28 29 31
5 6 10 9 4 6 6 5 5 6 3 3 4 3 1 2 2 5 3 5 3 3 3 3 3 4 4 4 4 2 1 4 9 4 11 11 13 6 4 4 4 7 18 22 19 18 18 21 23 25 25 28 31 30
6 5 3 1 4 3 3 3 3 3 5 6 3 3 3 3 5 3 2 1 3 5 5 6 7 4 5 7 12 12 10 10 9 8 11 14 18 17 18 10 7 15 12 22 26 24 23 24 25 26 25 27 31 33
3 4 8 8 4 5 4 3 4 5 4 3 2 6 5 5 4 3 2 7 6 3 3 5 8 10 12 15 16 14 19 17 18 19 23 22 19 18 20 21 20 22 20 18 22 26 26 27 26 27 28 29 30 32
3 6 6 5 3 4 5 5 5 5 4 4 4 5 4 4 2 2 5 7 9 9 7 8 15 18 17 18 16 16 16 17 7 8 10 8 7 13 16 14 20 21 20 20 21 24 29 29 29 28 30 30 30 31
4 6 4 7 6 8 6 6 4 3 3 5 3 3 4 4 10 18 14 14 11 10 17 18 18 16 11 11 11 16 20 20 19 13 8 10 11 18 15 13 12 13 16 20 23 22 22 24 24 23 25 26 27 28
7 7 4 5 5 7 8 3 3 4 4 5 6 9 12 10 15 21 21 22 25 26 23 17 20 22 19 16 12 10 11 24 25 28 29 27 26 24 23 22 20 13 15 20 22 22 23 24 23 23 24 26 28 30
8 8 7 5 5 3 2 4 6 10 11 10 11 9 10 11 17 9 30 30 25 15 27 30 21 21 29 30 28 29 30 31 30 26 23 24 25 29 30 24 22 17 15 16 19 20 24 25 24 25 25 28 29 31
5 7 8 7 2 3 5 5 3 4 9 12 12 13 12 14 17 10 26 24 29 30 29 31 32 30 29 31 30 31 32 31 33 33 32 29 29 30 27 25 24 19 18 17 21 20 24 26 26 26 27 26 28 29
Wind_Direction
218 219 226 229 233 240 247 263 286 311 334 322 330 344 347 340 349 1 244 220 213 297 302 330 185 205 308 129 148 131 95 234 86 210 193 221 203 213 152 141 172 165 154 191 186 180 278 138 80 173 189 81 136 139
216 219 221 221 224 233 238 252 270 295 319 327 320 331 341 346 326 347 280 242 199 210 302 295 260 241 205 291 104 176 184 148 176 173 231 241 185 133 174 204 149 191 186 180 180 212 124 183 286 180 145 148 161 136
213 215 219 215 219 228 233 245 257 276 302 316 313 317 334 342 348 326 288 244 129 288 275 227 227 232 224 220 179 143 246 197 198 129 269 223 217 149 166 230 160 237 149 180 74 215 186 197 202 176 166 153 150 134
209 212 213 215 216 221 222 235 245 256 282 301 310 315 315 325 333 324 303 269 169 66 279 211 240 206 198 211 202 209 345 97 58 59 122 197 207 64 221 229 136 209 135 177 254 204 63 211 204 170 179 144 135 136
208 209 210 211 217 221 218 227 236 248 272 289 306 305 303 319 319 310 283 261 209 149 235 308 303 215 197 188 190 197 226 170 149 123 149 223 150 116 323 11 213 191 179 170 213 194 177 202 195 166 167 164 156 151
206 206 207 209 215 222 217 221 232 240 263 288 297 298 311 318 323 330 279 228 205 176 107 296 312 207 185 185 181 195 216 229 224 173 211 160 109 140 169 214 239 187 218 200 214 124 91 39 162 159 165 163 159 159
203 204 205 208 213 218 209 217 222 239 255 283 283 301 309 302 301 245 290 324 172 174 141 258 286 317 208 158 100 102 50 234 220 217 229 189 190 154 177 221 255 203 208 153 130 110 68 172 173 166 154 161 156 159
199 201 201 205 209 206 203 210 212 225 253 276 289 298 298 294 293 275 282 262 232 169 75 191 226 251 203 184 148 159 144 191 233 222 342 202 91 163 240 239 255 239 191 180 175 132 136 141 139 155 155 156 163 163
195 197 200 199 203 197 200 201 210 228 257 280 294 297 291 227 220 266 266 220 192 204 193 176 179 218 169 204 120 207 195 156 72 198 220 134 197 217 216 218 212 217 195 201 148 135 136 154 163 166 166 169 175 172
190 194 196 198 194 192 193 196 202 222 259 287 301 234 253 141 332 293 174 185 249 288 221 217 185 174 181 176 208 130 207 198 178 225 118 189 250 241 222 229 232 221 206 145 136 176 178 185 180 180 185 181 179 175
186 189 193 192 185 187 187 185 187 218 224 203 233 258 321 307 194 215 228 202 169 222 201 214 202 153 211 166 170 216 177 162 185 223 170 212 258 228 215 224 232 230 209 196 201 201 191 184 179 179 183 183 180 175
183 188 187 181 181 180 180 177 176 173 165 168 261 295 300 300 209 224 211 212 223 224 179 178 180 132 160 107 108 222 180 135 227 129 142 248 241 221 204 218 232 233 215 215 196 191 184 178 182 182 179 180 182 174
180 184 179 177 175 175 176 174 178 183 149 139 226 267 207 206 234 221 207 212 248 211 179 178 156 127 107 85 57 241 192 208 98 146 221 228 260 256 226 232 219 204 206 203 194 197 175 177 177 178 179 180 175 172
178 178 175 172 170 171 172 169 171 169 152 159 190 240 218 205 231 237 318 329 314 329 184 202 95 132 131 117 147 203 215 146 216 228 226 220 233 235 235 211 192 212 207 200 182 179 175 175 179 181 177 174 172 173
175 174 169 167 165 167 168 164 168 162 159 183 206 235 234 271 287 278 262 328 335 320 303 76 75 106 118 152 194 127 136 233 205 215 215 223 281 299 283 178 205 204 197 173 170 181 179 174 172 173 175 175 170 167
169 165 167 164 163 164 160 153 147 152 109 184 231 259 256 274 277 328 2 359 9 335 337 351 167 191 192 163 171 210 183 225 222 216 299 45 5 348 324 294 234 195 174 173 178 177 173 173 173 172 169 170 169 169
164 152 167 163 160 161 156 136 142 153 201 218 232 239 275 290 273 269 266 217 69 342 256 257 232 239 97 187 209 190 220 335 25 64 54 31 346 335 326 331 308 226 179 168 167 165 166 164 160 160 167 173 170 169
163 157 160 157 152 153 152 122 136 187 230 229 239 244 230 252 267 280 287 174 153 151 323 319 301 250 227 199 189 357 1 348 32 34 37 349 338 335 345 335 302 198 240 181 165 159 158 163 168 175 169 165 160 159
155 155 156 154 148 128 128 155 174 224 220 231 225 239 245 250 251 263 274 275 154 160 183 231 261 233 244 38 42 3 9 11 355 340 50 90 359 334 344 345 338 268 246 171 156 167 173 176 174 170 167 163 166 165
151 151 154 152 152 119 114 131 173 250 245 225 217 230 232 238 237 235 239 217 151 170 207 214 223 253 263 0 19 310 310 324 330 333 327 334 73 179 304 337 334 312 223 167 162 158 155 163 171 168 169 171 170 173
143 154 156 153 137 78 105 149 186 225 245 265 6 313 247 175 220 240 249 222 197 206 227 214 242 267 261 199 204 283 309 297 310 293 305 308 315 337 334 345 325 310 236 169 150 151 164 176 172 171 171 177 178 176
146 152 125 139 95 141 176 193 230 21 217 259 263 191 257 240 240 218 198 211 220 229 224 234 230 230 247 247 224 199 238 266 276 291 294 291 303 315 291 236 203 249 227 196 179 172 179 181 178 173 175 177 171 169
132 131 95 123 130 172 211 152 182 211 231 255 233 235 222 219 229 116 231 202 222 223 229 232 237 244 251 257 253 222 229 234 253 262 271 276 275 280 280 279 222 216 224 211 199 191 187 188 181 171 175 173 166 165
128 96 139 163 139 173 151 184 216 206 204 211 233 253 261 240 156 228 243 226 244 249 220 230 237 248 247 248 248 250 250 238 248 257 253 253 235 263 269 261 228 224 221 221 198 187 191 194 175 174 180 174 171 168
108 171 136 150 185 144 174 184 185 194 216 201 211 260 271 144 245 247 240 243 234 246 251 234 214 234 242 252 251 250 239 224 227 241 251 254 248 236 246 262 238 224 214 200 202 191 191 189 180 183 188 183 180 175
152 177 179 172 157 160 177 172 203 195 181 191 235 232 142 219 247 251 240 217 254 97 70 49 19 356 330 310 283 269 337 323 298 250 255 255 260 242 248 247 248 250 220 211 201 196 188 179 188 195 193 191 188 180
151 155 162 131 149 143 193 195 189 164 174 196 208 166 185 229 238 247 248 28 126 115 65 31 19 358 335 330 333 334 311 304 273 263 291 292 273 266 261 246 233 258 249 218 209 200 193 189 191 198 197 194 194 190
166 144 155 170 171 181 174 191 160 182 192 213 179 181 201 208 234 210 148 156 143 170 218 270 289 302 301 304 299 296 302 294 291 288 295 295 278 260 255 255 262 263 255 240 223 209 202 195 197 199 198 196 196 195
146 157 122 160 165 176 210 182 199 215 195 167 181 201 225 216 220 225 236 240 255 259 260 271 280 284 280 273 269 272 279 283 272 271 279 284 295 286 273 264 254 246 238 233 232 222 210 202 199 202 203 199 197 194
155 162 155 167 179 205 199 203 217 195 191 209 218 266 266 263 247 252 272 281 274 263 262 265 266 260 257 258 258 259 259 257 256 252 253 257 265 278 283 264 265 262 240 234 230 215 206 208 202 205 200 196 193 191
151 184 156 167 213 222 225 218 214 226 224 227 232 241 250 259 263 261 258 256 254 253 255 255 251 248 247 242 239 244 259 262 254 254 252 255 257 261 262 271 279 269 238 223 217 208 189 191 197 201 202 196 197 195
174 182 192 210 235 193 145 190 221 235 244 245 243 241 251 253 256 259 252 249 250 251 251 252 253 252 250 247 243 242 244 250 255 257 257 261 259 261 267 266 266 264 251 231 222 207 197 192 198 202 203 201 199 199
175 193 207 232 244 228 198 179 230 237 230 236 239 237 241 245 257 263 261 248 242 246 250 252 254 258 256 253 251 251 251 250 252 254 255 255 257 261 267 272 267 255 244 236 223 217 210 203 201 207 204 200 204 206